Location: Artiguedieu
(43.5000°N, 0.5454°E)
Time: 21:08:15
(UTC+00:00)

Transit 2A - Pass Details

Date: 26 July 2021
Orbit: 594 x 964 km, 66.7° (Epoch: 28 September)

Event Time Altitude Azimuth Distance (km) Brightness Sun altitude
Rises 15:36:30 0° 333° (NNW) 3,192 9.4 39.7°
Reaches altitude 10° 15:38:53 10° 339° (NNW) 2,323 8.7 39.3°
Maximum altitude 15:44:02 46° 53° (NE) 1,109 6.9 38.4°
Drops below altitude 10° 15:49:41 10° 126° (SE) 2,547 8.4 37.4°
Sets 15:52:24 0° 132° (SE) 3,532 9.1 36.9°
